Regional Weather Roundup
Issued by NWS Cleveland, OH

Home | Current Version | Previous Version | Graphics & Text | Print | Product List | Glossary On
Versions: 1 2 3 4 5 6 7 8 9 10 11 12 13 14 15 16 17 18 19 20 21 22 23 24 25 26 27 28 29 30 31 32 33 34 35 36 37 38 39 40 41 42 43 44 45 46 47 48 49 50
000
ASUS41 KCLE 212210
RWRCLE
OHIO REGIONAL WEATHER ROUNDUP
NATIONAL WEATHER SERVICE WILMINGTON, OH
600 PM EDT THU AUG 21 2014

NOTE: "FAIR" INDICATES FEW OR NO CLOUDS BELOW 12,000 FEET WITH NO
SIGNIFICANT WEATHER AND/OR OBSTRUCTIONS TO VISIBILITY.

OHZ001>008-015>018-024>027-034-035-043-044-212300-
   NORTHWEST OHIO

CITY           SKY/WX    TMP DP  RH WIND       PRES   REMARKS
DEFIANCE       CLOUDY    79  69  71 SW7       29.99F
FINDLAY        PTSUNNY   76  67  73 W10       29.99F
TOLEDO EXPRESS CLOUDY    80  69  69 SW10      29.97F
TOLEDO METCALF CLOUDY    80  69  69 W15       29.98F
LIMA           CLOUDY    76  71  85 W8        30.01S
$$

OHZ009>014-019>023-028>033-038-089-212300-
   NORTHEAST OHIO

CITY           SKY/WX    TMP DP  RH WIND       PRES   REMARKS
CLE-HOPKINS    PTSUNNY   78  69  73 SW10      29.99S
CLE-LAKEFRONT  CLOUDY    78  71  79 CALM      29.96S
CUY CO. ARPT   PTSUNNY   81  73  78 NW9       29.99S
LORAIN-ELYRIA  PTSUNNY   79  69  71 W14       30.00R
ASHTABULA      PTSUNNY   76  69  79 NW3       30.00R
AKRON-CANTON   CLOUDY    76  66  71 SW9       30.02R
WOOSTER        CLOUDY    73  67  81 SW7       30.03R
MANSFIELD      CLOUDY    74  68  81 W7        30.03R
YOUNGSTOWN     CLOUDY    74  68  81 E6        30.00S
$$

OHZ042-051>053-060>062-070>072-077>081-212300-
  SOUTHWEST OHIO

CITY           SKY/WX    TMP DP  RH WIND       PRES   REMARKS
CINC-COVINGTON PTSUNNY   83  73  72 S8        30.02F
CINC-LUNKEN    MOSUNNY   82  74  76 S6        30.02F
HAMILTON       MOSUNNY   82  74  76 CALM      30.02F
DAYTON         PTSUNNY   78  69  73 S8        30.04S
WRIGHT-PAT AFB PTSUNNY   78  69  75 S8        30.03S
DAYTON GENERAL MOSUNNY   77  72  84 S9        30.03F
WILMINGTON     PTSUNNY   78  70  76 S12       30.03F
$$

OHZ036-037-039>041-045>050-054>059-063>069-073>076-082>088-212300-
  CENTRAL AND SOUTHEAST OHIO

CITY           SKY/WX    TMP DP  RH WIND       PRES   REMARKS
COLUMBUS       CLOUDY    75  68  78 W7        30.02R
OSU AIRPORT    LGT RAIN  73  68  84 SW7       30.02R
BOLTON FIELD   NOT AVBL
RICKENBACK AFB RAIN      72  66  82 SW8       30.04R
NEWARK         CLOUDY    74  68  81 SW5       30.03R
MARION         PTSUNNY   75  68  78 W7        30.02S
LANCASTER      PTSUNNY   74  70  87 SW8       30.03R
ZANESVILLE     CLOUDY    74  68  81 MISG      30.04R
NEW PHILLY     CLOUDY    74  68  81 W6        30.03S
$$



USA.gov is the U.S. government's official web portal to all federal, state and local government web resources and services.